Weather History for Cecil Field, FL

Change the Weather History Date:

Saturday, August 30, 2014

  Actual Average (KJAX) Record (KJAX)
Temperature  
Mean Temperature 80 °F 81 °F  
Max Temperature 91 °F 90 °F 98 °F (1948)
Min Temperature 69 °F 72 °F 64 °F (1896)
Degree Days  
Heating Degree Days 0 0  
Month to date heating degree days 0  
Since 1 June heating degree days 0  
Since 1 July heating degree days 0  
Cooling Degree Days 15 16  
Month to date cooling degree days 503  
Year to date cooling degree days 1972  
Since 1 June cooling degree days 1488  
Growing Degree Days 30 (Base 50)    
Moisture  
Dew Point 73 °F    
Average Humidity 88    
Maximum Humidity 100    
Minimum Humidity 55    
Precipitation  
Precipitation 0.00 in 0.25 in 3.88 in (1968)
Month to date precipitation 6.54  
Year to date precipitation 35.10  
Snow  
Snow 0.00 in 0.00 in 0.00 in (2002)
Month to date snowfall 0.0  
Since 1 June snowfall 0.0  
Since 1 July snowfall 0.0  
Snow Depth -    
Sea Level Pressure  
Sea Level Pressure 30.11 in    
Wind  
Wind Speed 3 mph (South)    
Max Wind Speed 12 mph    
Max Gust Speed -    
Visibility 9 miles    
Events Thunderstorm    
T = Trace of Precipitation, MM = Missing Value Source: NWS Daily Summary

Daily Weather History Graph

Daily Weather History Graph

Search for Another Location

Airport:

Trip Planner

Search our weather history database for the weather conditions in past years. The results will help you decide how hot, cold, wet, or windy it might be!

Date:

Astronomy

Aug. 30, 2014 Rise Set
Actual Time 7:03 AM EDT 7:52 PM EDT
Civil Twilight 6:38 AM EDT 8:16 PM EDT
Nautical Twilight 6:09 AM EDT 8:45 PM EDT
Astronomical Twilight 5:40 AM EDT 9:15 PM EDT
Moon 11:26 AM EDT (8/30) 10:49 PM EDT (8/30)
Length of Visible Light 13h 38m
Length of Day
12h 49m
Waxing Crescent, 23% of the Moon is Illuminated
Aug 30
Waxing Crescent
Sep 2
First Quarter
Sep 8
Full
Sep 15
Last Quarter
Sep 24
New

Hourly Weather History & Observations

Time (EDT) Temp. Heat Index Dew Point Humidity Pressure Visibility Wind Dir Wind Speed Gust Speed Precip Events Conditions
12:15 AM 75.2 °F - 73.4 °F 94% 30.11 in 10.0 mi SSE 3.5 mph - N/A   Clear
12:35 AM 75.2 °F - 73.4 °F 94% 30.13 in 10.0 mi SSE 3.5 mph - N/A   Scattered Clouds
12:55 AM 75.2 °F - 73.4 °F 94% 30.14 in 10.0 mi SSE 4.6 mph - N/A   Overcast
1:15 AM 75.2 °F - 73.4 °F 94% 30.13 in 10.0 mi South 4.6 mph - N/A   Overcast
1:35 AM 75.2 °F - 73.4 °F 94% 30.13 in 10.0 mi South 3.5 mph - N/A   Overcast
1:55 AM 75.2 °F - 73.4 °F 94% 30.11 in 10.0 mi West 3.5 mph - N/A   Mostly Cloudy
2:15 AM 73.4 °F - 73.4 °F 100% 30.10 in 10.0 mi West 3.5 mph - N/A   Partly Cloudy
2:35 AM 73.4 °F - 73.4 °F 100% 30.09 in 10.0 mi West 5.8 mph - N/A   Clear
2:55 AM 73.4 °F - 73.4 °F 100% 30.09 in 10.0 mi Calm Calm - N/A   Clear
3:15 AM 73.4 °F - 71.6 °F 94% 30.10 in 10.0 mi Calm Calm - N/A   Clear
3:35 AM 73.4 °F - 73.4 °F 100% 30.10 in 10.0 mi Calm Calm - N/A   Clear
3:55 AM 71.6 °F - 71.6 °F 100% 30.09 in 10.0 mi Calm Calm - N/A   Clear
4:15 AM 71.6 °F - 71.6 °F 100% 30.10 in 7.0 mi South 3.5 mph - N/A   Clear
4:35 AM 71.6 °F - 71.6 °F 100% 30.10 in 8.0 mi Calm Calm - N/A   Clear
5:15 AM 71.6 °F - 71.6 °F 100% 30.10 in 2.5 mi Calm Calm - N/A   Clear
5:35 AM 71.6 °F - 71.6 °F 100% 30.10 in 7.0 mi Calm Calm - N/A   Clear
5:55 AM 71.6 °F - 71.6 °F 100% 30.11 in 7.0 mi Calm Calm - N/A   Clear
6:15 AM 69.8 °F - 69.8 °F 100% 30.12 in 1.8 mi Calm Calm - N/A   Clear
6:35 AM 69.8 °F - 69.8 °F 100% 30.12 in 5.0 mi Calm Calm - N/A   Clear
6:50 AM 69.8 °F - 69.8 °F 100% 30.13 in 7.0 mi Calm Calm - N/A   Clear
7:50 AM 71.6 °F - 71.6 °F 100% 30.14 in 7.0 mi Calm Calm - N/A   Clear
8:50 AM 77.0 °F - 73.4 °F 89% 30.15 in 10.0 mi Calm Calm - N/A   Clear
9:50 AM 82.4 °F 89.5 °F 75.2 °F 79% 30.16 in 10.0 mi Calm Calm - N/A   Clear
10:50 AM 86.0 °F 95.1 °F 75.2 °F 70% 30.16 in 10.0 mi Calm Calm - N/A   Partly Cloudy
11:50 AM 86.0 °F 93.4 °F 73.4 °F 66% 30.14 in 10.0 mi Calm Calm - N/A   Partly Cloudy
1:50 PM 91.4 °F 100.1 °F 73.4 °F 55% 30.11 in 10.0 mi North 3.5 mph - N/A   Clear
2:50 PM 91.4 °F 100.1 °F 73.4 °F 55% 30.09 in 10.0 mi WNW 3.5 mph - N/A   Scattered Clouds
3:50 PM 89.6 °F 98.2 °F 73.4 °F 59% 30.07 in 10.0 mi Variable 4.6 mph - N/A   Mostly Cloudy
4:50 PM 87.8 °F 97.6 °F 75.2 °F 66% 30.06 in 10.0 mi ENE 11.5 mph - N/A   Partly Cloudy
5:50 PM 89.6 °F 99.8 °F 75.2 °F 62% 30.06 in 10.0 mi ENE 10.4 mph - N/A   Clear
6:50 PM 86.0 °F 95.1 °F 75.2 °F 70% 30.06 in 10.0 mi East 6.9 mph - N/A   Clear
7:50 PM 82.4 °F 89.5 °F 75.2 °F 79% 30.08 in 10.0 mi East 5.8 mph - N/A   Clear
8:15 PM 80.6 °F 86.2 °F 75.2 °F 84% 30.09 in 10.0 mi Calm Calm - N/A   Clear
8:35 PM 80.6 °F 86.2 °F 75.2 °F 84% 30.09 in 10.0 mi Calm Calm - N/A Thunderstorm Clear
8:55 PM 78.8 °F - 75.2 °F 89% 30.10 in 10.0 mi Calm Calm - N/A   Clear
9:15 PM 77.0 °F - 75.2 °F 94% 30.12 in 10.0 mi Calm Calm - N/A   Clear
9:35 PM 78.8 °F - 75.2 °F 89% 30.12 in 10.0 mi Calm Calm - N/A   Clear
9:55 PM 77.0 °F - 75.2 °F 94% 30.12 in 10.0 mi Calm Calm - N/A   Partly Cloudy
10:15 PM 77.0 °F - 75.2 °F 94% 30.13 in 10.0 mi Calm Calm - N/A   Partly Cloudy
10:35 PM 77.0 °F - 73.4 °F 89% 30.14 in 10.0 mi Calm Calm - N/A   Clear
11:15 PM 75.2 °F - 73.4 °F 94% 30.14 in 10.0 mi Calm Calm - N/A   Clear
11:35 PM 75.2 °F - 73.4 °F 94% 30.15 in 10.0 mi WSW 4.6 mph - N/A   Scattered Clouds
11:55 PM 77.0 °F - 71.6 °F 83% 30.16 in 10.0 mi West 4.6 mph - N/A   Mostly Cloudy